Weather History for Shawano, WI

Change the Weather History Date:

Thursday, November 1, 2012

  Actual Average (KGRB) Record (KGRB)
Temperature  
Mean Temperature 38 °F 41 °F  
Max Temperature 48 °F 50 °F 74 °F (1933)
Min Temperature 28 °F 33 °F 16 °F (1951)
Degree Days  
Heating Degree Days 27 24  
Month to date heating degree days 24  
Since 1 July heating degree days 850  
Cooling Degree Days 0 0  
Month to date cooling degree days 0  
Year to date cooling degree days 398  
Moisture  
Dew Point 26 °F    
Average Humidity 64    
Maximum Humidity 93    
Minimum Humidity 43    
Precipitation  
Precipitation 0.00 in 0.08 in 2.23 in (1985)
Month to date precipitation 0.08  
Year to date precipitation 25.96  
Snow  
Snow 0.00 in 0.00 in 3.00 in (1910)
Month to date snowfall 0.0  
Since 1 July snowfall 0.2  
Since 1 September snowfall 0.2  
Snow Depth -    
Sea Level Pressure  
Sea Level Pressure 29.85 in    
Wind  
Wind Speed 5 mph (WNW)    
Max Wind Speed 16 mph    
Max Gust Speed 22 mph    
Visibility 10 miles    
Events      
T = Trace of Precipitation, MM = Missing Value Source: NWS Daily Summary

Daily Weather History Graph

Daily Weather History Graph

Search for Another Location

Airport:

Trip Planner

Search our weather history database for the weather conditions in past years. The results will help you decide how hot, cold, wet, or windy it might be!

Date:

Astronomy

Nov. 01, 2012 Rise Set
Actual Time 7:32 AM CDT 5:42 PM CDT
Civil Twilight 7:02 AM CDT 6:12 PM CDT
Nautical Twilight 6:27 AM CDT 6:47 PM CDT
Astronomical Twilight 5:53 AM CDT 7:21 PM CDT
Moon 7:33 PM CDT (11/1) 10:10 AM CDT (11/1)
Length of Visible Light 11h 10m
Length of Day
10h 09m
Waning Gibbous, 93% of the Moon is Illuminated
Nov 1
Waning Gibbous
Nov 6
Last Quarter
Nov 13
New
Nov 20
First Quarter
Nov 28
Full

Hourly Weather History & Observations

Time (CDT) Temp. Windchill Dew Point Humidity Pressure Visibility Wind Dir Wind Speed Gust Speed Precip Events Conditions
12:15 AM 28.4 °F 24.6 °F 19.4 °F 69% 29.84 in 10.0 mi WSW 3.5 mph - N/A   Clear
12:35 AM 28.4 °F - 17.6 °F 64% 29.84 in 10.0 mi Calm Calm - N/A   Clear
12:55 AM 28.4 °F - 19.4 °F 69% 29.84 in 10.0 mi Calm Calm - N/A   Clear
1:15 AM 28.4 °F - 19.4 °F 69% 29.83 in 10.0 mi Calm Calm - N/A   Clear
1:35 AM 30.2 °F 26.7 °F 19.4 °F 64% 29.83 in 10.0 mi WSW 3.5 mph - N/A   Clear
1:55 AM 30.2 °F 26.7 °F 17.6 °F 60% 29.82 in 10.0 mi WSW 3.5 mph - N/A   Scattered Clouds
2:15 AM 32.0 °F 27.5 °F 17.6 °F 55% 29.82 in 10.0 mi WSW 4.6 mph - N/A   Overcast
2:35 AM 32.0 °F 28.7 °F 19.4 °F 60% 29.82 in 10.0 mi WSW 3.5 mph - N/A   Overcast
3:15 AM 33.8 °F 30.8 °F 19.4 °F 56% 29.81 in 10.0 mi West 3.5 mph - N/A   Overcast
3:35 AM 33.8 °F 30.8 °F 19.4 °F 56% 29.80 in 10.0 mi West 3.5 mph - N/A   Overcast
3:55 AM 33.8 °F 30.8 °F 19.4 °F 56% 29.81 in 10.0 mi West 3.5 mph - N/A   Overcast
4:15 AM 35.6 °F 32.8 °F 17.6 °F 48% 29.80 in 10.0 mi West 3.5 mph - N/A   Overcast
4:35 AM 35.6 °F - 17.6 °F 48% 29.80 in 10.0 mi Calm Calm - N/A   Overcast
5:15 AM 35.6 °F - 19.4 °F 52% 29.80 in 10.0 mi Calm Calm - N/A   Overcast
5:35 AM 35.6 °F 32.8 °F 19.4 °F 52% 29.80 in 10.0 mi West 3.5 mph - N/A   Overcast
5:55 AM 35.6 °F 32.8 °F 19.4 °F 52% 29.81 in 10.0 mi West 3.5 mph - N/A   Overcast
6:15 AM 35.6 °F 32.8 °F 19.4 °F 52% 29.82 in 10.0 mi West 3.5 mph - N/A   Overcast
6:35 AM 35.6 °F 30.7 °F 19.4 °F 52% 29.82 in 10.0 mi West 5.8 mph - N/A   Overcast
6:55 AM 35.6 °F 31.7 °F 19.4 °F 52% 29.82 in 10.0 mi West 4.6 mph - N/A   Overcast
7:35 AM 35.6 °F 32.8 °F 21.2 °F 56% 29.82 in 10.0 mi WSW 3.5 mph - N/A   Overcast
7:55 AM 35.6 °F 32.8 °F 21.2 °F 56% 29.83 in 10.0 mi WSW 3.5 mph - N/A   Overcast
8:35 AM 35.6 °F 31.7 °F 21.2 °F 56% 29.84 in 10.0 mi West 4.6 mph - N/A   Scattered Clouds
8:55 AM 37.4 °F 33.8 °F 21.2 °F 52% 29.83 in 10.0 mi West 4.6 mph - N/A   Mostly Cloudy
9:15 AM 37.4 °F 32.8 °F 21.2 °F 52% 29.84 in 10.0 mi WNW 5.8 mph - N/A   Overcast
9:35 AM 39.2 °F 35.0 °F 23.0 °F 52% 29.84 in 10.0 mi WNW 5.8 mph - N/A   Overcast
9:55 AM 41.0 °F 38.0 °F 23.0 °F 49% 29.84 in 10.0 mi West 4.6 mph - N/A   Overcast
10:15 AM 41.0 °F - 23.0 °F 49% 29.83 in 10.0 mi Calm Calm - N/A   Scattered Clouds
10:35 AM 42.8 °F 39.3 °F 23.0 °F 46% 29.83 in 10.0 mi WNW 5.8 mph - N/A   Clear
10:55 AM 44.6 °F 40.7 °F 24.8 °F 46% 29.83 in 10.0 mi NW 6.9 mph - N/A   Clear
11:15 AM 46.4 °F 41.9 °F 26.6 °F 46% 29.83 in 10.0 mi NW 9.2 mph 17.3 mph N/A   Clear
11:35 AM 48.2 °F - 26.6 °F 43% 29.83 in 10.0 mi NNW 12.7 mph - N/A   Clear
11:55 AM 48.2 °F - 28.4 °F 46% 29.83 in 10.0 mi WNW 8.1 mph 20.7 mph N/A   Scattered Clouds
12:15 PM 46.4 °F 41.9 °F 28.4 °F 50% 29.83 in 10.0 mi NW 9.2 mph - N/A   Scattered Clouds
12:35 PM 46.4 °F 43.5 °F 30.2 °F 53% 29.82 in 10.0 mi WNW 5.8 mph - N/A   Mostly Cloudy
1:15 PM 46.4 °F 41.1 °F 32.0 °F 57% 29.82 in 10.0 mi WNW 11.5 mph 17.3 mph N/A   Overcast
1:35 PM 46.4 °F 40.1 °F 32.0 °F 57% 29.82 in 10.0 mi NW 15.0 mph 19.6 mph N/A   Overcast
1:55 PM 44.6 °F 37.8 °F 32.0 °F 61% 29.83 in 10.0 mi NW 15.0 mph 21.9 mph N/A   Overcast
2:15 PM 44.6 °F 37.4 °F 32.0 °F 61% 29.83 in 10.0 mi NW 16.1 mph 21.9 mph N/A   Overcast
2:35 PM 42.8 °F 37.5 °F 32.0 °F 66% 29.83 in 10.0 mi NNW 9.2 mph 19.6 mph N/A   Overcast
2:55 PM 44.6 °F 39.2 °F 32.0 °F 61% 29.83 in 10.0 mi NNW 10.4 mph 20.7 mph N/A   Overcast
3:15 PM 44.6 °F 40.2 °F 32.0 °F 61% 29.83 in 10.0 mi NW 8.1 mph - N/A   Overcast
3:55 PM 44.6 °F 38.8 °F 32.0 °F 61% 29.84 in 10.0 mi WNW 11.5 mph - N/A   Overcast
4:15 PM 44.6 °F 39.7 °F 32.0 °F 61% 29.84 in 10.0 mi NW 9.2 mph - N/A   Mostly Cloudy
4:35 PM 42.8 °F 37.5 °F 32.0 °F 66% 29.85 in 10.0 mi NW 9.2 mph 18.4 mph N/A   Overcast
4:55 PM 42.8 °F 37.0 °F 32.0 °F 66% 29.85 in 10.0 mi NW 10.4 mph 17.3 mph N/A   Overcast
5:15 PM 42.8 °F 38.0 °F 32.0 °F 66% 29.86 in 10.0 mi NW 8.1 mph - N/A   Overcast
5:35 PM 41.0 °F 36.4 °F 32.0 °F 70% 29.86 in 10.0 mi NNW 6.9 mph 10.4 mph N/A   Overcast
5:55 PM 41.0 °F 37.1 °F 32.0 °F 70% 29.87 in 10.0 mi NNW 5.8 mph - N/A   Overcast
6:15 PM 41.0 °F 35.8 °F 32.0 °F 70% 29.87 in 10.0 mi NW 8.1 mph - N/A   Overcast
6:35 PM 41.0 °F 36.4 °F 32.0 °F 70% 29.88 in 10.0 mi NW 6.9 mph - N/A   Overcast
6:55 PM 41.0 °F 36.4 °F 32.0 °F 70% 29.89 in 10.0 mi NNW 6.9 mph - N/A   Overcast
7:15 PM 41.0 °F 37.1 °F 32.0 °F 70% 29.89 in 10.0 mi NW 5.8 mph - N/A   Mostly Cloudy
7:35 PM 39.2 °F 33.6 °F 32.0 °F 75% 29.90 in 10.0 mi NNW 8.1 mph - N/A   Scattered Clouds
7:55 PM 37.4 °F 32.8 °F 32.0 °F 81% 29.91 in 10.0 mi NW 5.8 mph - N/A   Scattered Clouds
8:15 PM 35.6 °F 30.7 °F 32.0 °F 87% 29.91 in 10.0 mi NW 5.8 mph - N/A   Scattered Clouds
8:35 PM 35.6 °F 30.7 °F 32.0 °F 87% 29.92 in 10.0 mi NW 5.8 mph - N/A   Clear
8:55 PM 35.6 °F 30.7 °F 30.2 °F 81% 29.92 in 10.0 mi NW 5.8 mph - N/A   Clear
9:15 PM 35.6 °F 31.7 °F 30.2 °F 81% 29.93 in 10.0 mi NW 4.6 mph - N/A   Clear
9:35 PM 33.8 °F 29.6 °F 30.2 °F 87% 29.93 in 10.0 mi NW 4.6 mph - N/A   Clear
9:55 PM 33.8 °F 28.6 °F 30.2 °F 87% 29.93 in 10.0 mi NW 5.8 mph - N/A   Clear
10:15 PM 33.8 °F 29.6 °F 30.2 °F 87% 29.94 in 10.0 mi NW 4.6 mph - N/A   Clear
10:35 PM 33.8 °F 29.6 °F 30.2 °F 87% 29.94 in 10.0 mi NW 4.6 mph - N/A   Clear
10:55 PM 33.8 °F 29.6 °F 30.2 °F 87% 29.94 in 10.0 mi WNW 4.6 mph - N/A   Clear
11:15 PM 33.8 °F 30.8 °F 30.2 °F 87% 29.94 in 10.0 mi WNW 3.5 mph - N/A   Clear
11:35 PM 32.0 °F 28.7 °F 30.2 °F 93% 29.95 in 10.0 mi WNW 3.5 mph - N/A   Clear
11:55 PM 32.0 °F 28.7 °F 30.2 °F 93% 29.95 in 10.0 mi WNW 3.5 mph - N/A   Clear